This demonstration page uses our WeatherBlox Daily Observations layout. Learn more.

Left ArrowRight Arrow

Hourly Observations for February 27, 2020

Temp ( °F °C ) Dew Point ( °F °C ) Humidity (%) Winds ( mph kmh ) Pressure ( in mb ) Visibility ( mi km ) Precip ( " mm )
12:43 am 00:43 Cloudy 58 14.4 53 11.7 84 84 SSW 14 22 29.56 1001 10 16 0.05 1.27
12:59 am 00:59 Cloudy 58 14.4 53 11.7 84 84 SSW 12 19 29.55 1001 10 16 0.05 1.27
1:28 am 01:28 Cloudy 54 12.2 46 7.8 75 75 W 15 24 29.62 1003 10 16 0.00 0.00
1:48 am 01:48 Cloudy 52 11.1 45 7.2 77 77 W 18 30 29.62 1003 10 16 0.00 0.00
1:59 am 01:59 Cloudy 52 11.1 45 7.2 77 77 W 21 33 29.62 1003 10 16 0.00 0.00
2:59 am 02:59 Cloudy 50 10 39 3.9 66 66 W 18 30 29.63 1003 10 16 0.00 0.00
3:59 am 03:59 Cloudy 48 8.9 36 2.2 63 63 W 20 31 29.66 1004 10 16 0.00 0.00
4:59 am 04:59 Partly Cloudy 46 7.8 34 1.1 63 63 W 15 24 29.69 1005 10 16 0.00 0.00
5:59 am 05:59 Partly Cloudy 45 7.2 32 0 61 61 W 18 30 29.71 1006 10 16 0.00 0.00
6:59 am 06:59 Sunny 44 6.7 31 -0.6 60 60 W 17 28 29.76 1008 10 16 0.00 0.00
7:59 am 07:59 Mostly Sunny 44 6.7 28 -2.2 53 53 W 18 30 29.80 1009 10 16 0.00 0.00
8:59 am 08:59 Sunny 45 7.2 26 -3.3 48 48 WNW 21 33 29.82 1010 10 16 0.00 0.00
9:59 am 09:59 Sunny 47 8.3 24 -4.4 41 41 W 22 35 29.84 1010 10 16 0.00 0.00
10:59 am 10:59 Sunny 48 8.9 24 -4.4 39 39 W 21 33 29.86 1011 10 16 0.00 0.00
11:59 am 11:59 Mostly Sunny 49 9.4 23 -5 36 36 WNW 23 37 29.87 1012 10 16 0.00 0.00
12:59 pm 12:59 Mostly Sunny 50 10 22 -5.6 33 33 WNW 25 41 29.87 1012 10 16 0.00 0.00
1:59 pm 13:59 Mostly Sunny 49 9.4 21 -6.1 33 33 W 17 28 29.87 1011 10 16 0.00 0.00
2:59 pm 14:59 Mostly Sunny 50 10 21 -6.1 32 32 W 18 30 29.88 1012 10 16 0.00 0.00
3:59 pm 15:59 Mostly Sunny 50 10 19 -7.2 29 29 W 14 22 29.89 1012 10 16 0.00 0.00
4:59 pm 16:59 Sunny 49 9.4 19 -7.2 31 31 W 13 20 29.91 1013 10 16 0.00 0.00
5:59 pm 17:59 Clear 48 8.9 17 -8.3 29 29 W 14 22 29.94 1014 10 16 0.00 0.00
6:59 pm 18:59 Clear 46 7.8 16 -8.9 30 30 W 17 28 29.98 1015 10 16 0.00 0.00
7:59 pm 19:59 Clear 45 7.2 18 -7.8 34 34 W 12 19 30.00 1016 10 16 0.00 0.00
8:59 pm 20:59 Clear 43 6.1 20 -6.7 40 40 W 6 9 30.02 1017 10 16 0.00 0.00
9:59 pm 21:59 Clear 43 6.1 20 -6.7 40 40 W 14 22 30.03 1017 10 16 0.00 0.00
10:59 pm 22:59 Clear 42 5.6 19 -7.2 40 40 WNW 17 28 30.04 1017 10 16 0.00 0.00
11:59 pm 23:59 Clear 40 4.4 17 -8.3 40 40 NW 15 24 30.06 1018 10 16 0.00 0.00

Powered by AerisWeather